DELTA 1 DEB, 7149

Orbit data source: Space-Track

DELTA 1 DEB, 7149 is space debris in SSO originally from a launch on Tue, 06 Nov 1973 UTC launched from the Air Force Western Test Range (AFWTR). Debris objects in space refer to the collection of defunct objects orbiting the Earth. Examples of debris include non-operational satellites, rocket bodies, and fragments generated from explosions, collisions, or faulty payload assembly.

Loading next visibility...
Identifier
7149, 1973-086DP
Orbit
SSO
Country
Flag of USUS
Related business
Manufacturer
Unknown
Mission
Spacecraft
Bus & Motor
Unknown
Mass
Unknown
Launch date (UTC)
1973-11-06 (52 years ago)
Launch vehicle
Unknown
Launch site
Air Force Western Test Range (AFWTR)
Object type
Payload
Rocket body
Debris
Shape & HBR
Unknown shape, 0.2 m
Radar Cross Section
Small (<0.1 m²)

Expand to show TLE details & history
Last TLE update: 23 hours ago

TLE from 23 hours ago
0 DELTA 1 DEB
1 07149U 73086DP  25293.77441222  .00000487  00000-0  39225-2 0  9997
2 07149 102.1124  44.0717 0049068  97.7168  58.3828 12.40907156345339
Epoch: 2025-10-20T18:35Z
TLE epoch observation values (Epoch: 2025-10-20T18:35:09.215Z)
Latitude
22.88797°
Longitude
-79.01597°
Altitude
1,485.07 km
Speed
7.132 km/s
True Right ascension
15h 16m 58s
True Declination
22° 46' 35"
Sunlit
Object was in daylight at epoch
Visualization orbit readout
Latitude
Unknown
Longitude
Unknown
Altitude
Unknown
Speed
Unknown
Apparent Right ascension
Unknown
Apparent Declination
Unknown
Sunlit
N/A
Visualization observer readout
Local Sidereal Time
13:05:05
Azimuth
Unknown
Elevation
Unknown
Doppler factor
Unknown
Orbital elements
Apogee altitude
1,538.998 km
Perigee altitude
1,461.682 km
Semi-major axis
7,878.477 km
Eccentricity
0.00491
Inclination
102.1124°
RAAN
44.0717°
Arg. of periapsis
97.7168°
True anomaly
58.86316°
Mean anomaly
58.3828°
Eccentric anomaly
58.62282°
Mean motion
3.1037 °/min
Orbital period
115.99 mins
BSTAR
0.0039225
Loading maneuver chart data...
Computing Atmospheric mass density...
Loading historical data...
Loading historical data...
Loading historical data...
Loading historical data...
Loading historical data...
Loading historical data...
Loading historical data...

Documentation

Showing up to 5 results
|